Weather History for Sparta, WI

Change the Weather History Date:

Sunday, February 10, 2013

  Actual Average Record
Temperature  
Mean Temperature 36 °F -  
Max Temperature 41 °F 29 °F 52 °F (1984)
Min Temperature 30 °F 7 °F -26 °F (2011)
Degree Days  
Heating Degree Days 30    
Moisture  
Dew Point 32 °F    
Average Humidity 94    
Maximum Humidity 100    
Minimum Humidity 86    
Precipitation  
Precipitation 0.15 in - - ()
Sea Level Pressure  
Sea Level Pressure 29.59 in    
Wind  
Wind Speed 6 mph (SE)    
Max Wind Speed 13 mph    
Max Gust Speed 18 mph    
Visibility 7 miles    
Events Rain , Snow    
Averages and records for this station are not official NWS values.
T = Trace of Precipitation, MM = Missing Value Source: NWS Daily Summary

Daily Weather History Graph

Daily Weather History Graph

Search for Another Location

Airport:

Trip Planner

Search our weather history database for the weather conditions in past years. The results will help you decide how hot, cold, wet, or windy it might be!

Date:

Astronomy

Feb. 10, 2013 Rise Set
Actual Time 7:08 AM CST 5:26 PM CST
Civil Twilight 6:38 AM CST 5:56 PM CST
Nautical Twilight 6:04 AM CST 6:30 PM CST
Astronomical Twilight 5:31 AM CST 7:03 PM CST
Moon 6:55 AM CST (2/10) 6:20 PM CST (2/10)
Length of Visible Light 11h 17m
Length of Day
10h 17m
New Moon, 0% of the Moon is Illuminated
Feb 10
New Moon
Feb 17
First Quarter
Feb 25
Full
Mar 4
Last Quarter
Mar 11
New

Hourly Weather History & Observations

Time (CST) Temp. Windchill Dew Point Humidity Pressure Visibility Wind Dir Wind Speed Gust Speed Precip Events Conditions
12:15 AM 30.2 °F 25.4 °F 26.6 °F 86% 30.01 in 10.0 mi SE 4.6 mph - N/A   Overcast
12:35 AM 30.2 °F 26.7 °F 26.6 °F 86% 30.01 in 10.0 mi ESE 3.5 mph - N/A   Overcast
12:55 AM 30.2 °F 25.4 °F 26.6 °F 86% 30.01 in 10.0 mi SE 4.6 mph - N/A   Overcast
1:15 AM 30.2 °F - 26.6 °F 86% 29.99 in 10.0 mi Calm Calm - N/A   Overcast
1:35 AM 30.2 °F 26.7 °F 26.6 °F 86% 29.98 in 10.0 mi SE 3.5 mph - N/A   Overcast
1:55 AM 30.2 °F 26.7 °F 26.6 °F 86% 29.98 in 10.0 mi ESE 3.5 mph - N/A   Overcast
2:15 AM 30.2 °F 25.4 °F 28.4 °F 93% 29.97 in 10.0 mi SE 4.6 mph - N/A   Overcast
2:35 AM 30.2 °F 25.4 °F 28.4 °F 93% 29.96 in 10.0 mi East 4.6 mph - N/A   Overcast
2:55 AM 30.2 °F 26.7 °F 28.4 °F 93% 29.94 in 7.0 mi ESE 3.5 mph - N/A   Overcast
3:15 AM 30.2 °F 24.3 °F 28.4 °F 93% 29.93 in 7.0 mi East 5.8 mph - N/A   Overcast
3:35 AM 30.2 °F 24.3 °F 28.4 °F 93% 29.92 in 7.0 mi East 5.8 mph - N/A   Overcast
3:55 AM 30.2 °F 23.4 °F 26.6 °F 86% 29.92 in 7.0 mi East 6.9 mph - N/A   Overcast
4:15 AM 30.2 °F 25.4 °F 26.6 °F 86% 29.92 in 7.0 mi ESE 4.6 mph - N/A   Overcast
4:35 AM 30.2 °F 25.4 °F 26.6 °F 86% 29.91 in 7.0 mi East 4.6 mph - N/A   Overcast
4:55 AM 30.2 °F 26.7 °F 26.6 °F 86% 29.90 in 7.0 mi East 3.5 mph - N/A   Mostly Cloudy
5:15 AM 30.2 °F 23.4 °F 26.6 °F 86% 29.89 in 3.0 mi East 6.9 mph - N/A Snow Light Snow
5:35 AM 30.2 °F 23.4 °F 28.4 °F 93% 29.87 in 7.0 mi East 6.9 mph - N/A   Scattered Clouds
5:55 AM 30.2 °F 22.6 °F 28.4 °F 93% 29.85 in 7.0 mi East 8.1 mph - N/A   Mostly Cloudy
6:15 AM 30.2 °F 22.6 °F 28.4 °F 93% 29.83 in 7.0 mi East 8.1 mph - N/A   Overcast
6:35 AM 30.2 °F 23.4 °F 28.4 °F 93% 29.82 in 7.0 mi East 6.9 mph - N/A   Overcast
6:55 AM 30.2 °F 21.9 °F 28.4 °F 93% 29.79 in 7.0 mi ESE 9.2 mph 16.1 mph N/A   Overcast
7:15 AM 30.2 °F 22.6 °F 28.4 °F 93% 29.77 in 7.0 mi ESE 8.1 mph - N/A   Overcast
7:35 AM 30.2 °F 22.6 °F 28.4 °F 93% 29.75 in 5.0 mi East 8.1 mph - N/A   Overcast
7:55 AM 30.2 °F 22.6 °F 28.4 °F 93% 29.75 in 5.0 mi East 8.1 mph - N/A   Overcast
8:15 AM 30.2 °F 23.4 °F 28.4 °F 93% 29.75 in 5.0 mi East 6.9 mph - N/A   Overcast
8:35 AM 30.2 °F 20.8 °F 26.6 °F 86% 29.74 in 5.0 mi East 11.5 mph - N/A   Overcast
8:55 AM 30.2 °F 20.8 °F 26.6 °F 86% 29.74 in 5.0 mi East 11.5 mph - N/A   Overcast
9:15 AM 30.2 °F 21.9 °F 28.4 °F 93% 29.74 in 2.5 mi East 9.2 mph - N/A   Overcast
9:35 AM 30.2 °F 23.4 °F 30.2 °F 100% 29.73 in 1.2 mi East 6.9 mph - N/A   Overcast
9:55 AM 30.2 °F 20.8 °F 30.2 °F 100% 29.68 in 1.0 mi East 11.5 mph - N/A   Overcast
10:15 AM 30.2 °F 21.9 °F 30.2 °F 100% 29.68 in 1.2 mi East 9.2 mph - N/A   Overcast
10:35 AM 30.2 °F 20.8 °F 30.2 °F 100% 29.65 in 1.2 mi East 11.5 mph - N/A   Overcast
10:55 AM 32.0 °F 22.5 °F 30.2 °F 93% 29.63 in 1.5 mi East 12.7 mph - N/A   Overcast
11:15 AM 32.0 °F 24.2 °F 30.2 °F 93% 29.60 in 2.5 mi East 9.2 mph - 0.01 in   Overcast
11:35 AM 32.0 °F 23.0 °F 32.0 °F 100% 29.57 in 3.0 mi East 11.5 mph 16.1 mph 0.03 in   Overcast
11:55 AM 32.0 °F 23.0 °F 32.0 °F 100% 29.54 in 4.0 mi East 11.5 mph - 0.04 in   Overcast
12:15 PM 32.0 °F 23.0 °F 32.0 °F 100% 29.49 in 4.0 mi East 11.5 mph 16.1 mph 0.02 in   Overcast
12:35 PM 32.0 °F 24.2 °F 32.0 °F 100% 29.47 in 5.0 mi East 9.2 mph - 0.03 in   Overcast
12:55 PM 33.8 °F 29.6 °F 32.0 °F 93% 29.48 in 4.0 mi SE 4.6 mph - 0.04 in   Overcast
1:15 PM 33.8 °F 27.7 °F 33.8 °F 100% 29.47 in 2.5 mi ESE 6.9 mph - 0.03 in   Overcast
1:35 PM 35.6 °F 28.6 °F 33.8 °F 93% 29.46 in 4.0 mi ESE 9.2 mph - 0.04 in   Drizzle
1:55 PM 35.6 °F 30.7 °F 33.8 °F 93% 29.45 in 4.0 mi ESE 5.8 mph - 0.05 in Rain Rain
2:15 PM 35.6 °F 29.9 °F 33.8 °F 93% 29.42 in 2.5 mi ESE 6.9 mph - N/A   Light Drizzle
2:35 PM 35.6 °F 29.9 °F 35.6 °F 100% 29.41 in 7.0 mi ESE 6.9 mph - N/A   Overcast
2:55 PM 37.4 °F 31.4 °F 35.6 °F 93% 29.41 in 10.0 mi SSE 8.1 mph - N/A   Overcast
3:15 PM 37.4 °F 32.1 °F 35.6 °F 93% 29.40 in 4.0 mi ESE 6.9 mph - N/A   Overcast
3:35 PM 37.4 °F 30.3 °F 35.6 °F 93% 29.39 in 10.0 mi ESE 10.4 mph 16.1 mph N/A   Overcast
3:55 PM 37.4 °F 30.8 °F 35.6 °F 93% 29.40 in 3.0 mi SSE 9.2 mph - N/A   Overcast
4:15 PM 37.4 °F 30.3 °F 35.6 °F 93% 29.39 in 10.0 mi SSE 10.4 mph 16.1 mph N/A   Overcast
4:35 PM 37.4 °F 29.8 °F 35.6 °F 93% 29.37 in 10.0 mi SSE 11.5 mph 18.4 mph N/A   Overcast
4:55 PM 37.4 °F 31.4 °F 37.4 °F 100% 29.36 in 10.0 mi SE 8.1 mph - N/A   Overcast
5:15 PM 37.4 °F 32.1 °F 37.4 °F 100% 29.35 in 10.0 mi SE 6.9 mph - N/A   Overcast
5:35 PM 37.4 °F 31.4 °F 37.4 °F 100% 29.34 in 10.0 mi SE 8.1 mph - N/A   Drizzle
5:55 PM 37.4 °F 30.8 °F 37.4 °F 100% 29.33 in 10.0 mi SE 9.2 mph - N/A   Overcast
6:15 PM 37.4 °F 30.8 °F 37.4 °F 100% 29.32 in 10.0 mi ESE 9.2 mph 16.1 mph N/A   Overcast
6:35 PM 39.2 °F 33.0 °F 37.4 °F 93% 29.31 in 7.0 mi SE 9.2 mph 17.3 mph N/A Rain Rain
6:55 PM 39.2 °F 33.6 °F 39.2 °F 100% 29.31 in 7.0 mi SSE 8.1 mph - N/A Rain Rain
7:15 PM 41.0 °F 34.3 °F 39.2 °F 93% 29.31 in 10.0 mi South 11.5 mph 16.1 mph 0.02 in Rain Light Rain
7:35 PM 41.0 °F 35.2 °F 39.2 °F 93% 29.31 in 10.0 mi South 9.2 mph 17.3 mph 0.02 in Rain Light Rain
7:55 PM 41.0 °F 36.4 °F 37.4 °F 87% 29.31 in 10.0 mi SSW 6.9 mph - 0.02 in   Mostly Cloudy
8:15 PM 39.2 °F 33.6 °F 37.4 °F 93% 29.31 in 10.0 mi South 8.1 mph - N/A Rain Rain
8:35 PM 39.2 °F 33.6 °F 35.6 °F 87% 29.31 in 10.0 mi SSW 8.1 mph 18.4 mph N/A Rain Light Rain
8:55 PM 37.4 °F 31.4 °F 35.6 °F 93% 29.31 in 10.0 mi SSW 8.1 mph - N/A   Drizzle
9:15 PM 37.4 °F 32.8 °F 35.6 °F 93% 29.31 in 10.0 mi South 5.8 mph - N/A   Drizzle
9:35 PM 35.6 °F 30.7 °F 35.6 °F 100% 29.31 in 7.0 mi SSW 5.8 mph - N/A   Drizzle
9:55 PM 35.6 °F 29.9 °F 35.6 °F 100% 29.31 in 10.0 mi SSW 6.9 mph - N/A   Light Drizzle
10:15 PM 35.6 °F 29.2 °F 33.8 °F 93% 29.31 in 10.0 mi South 8.1 mph - N/A   Light Drizzle
10:35 PM 35.6 °F 29.9 °F 33.8 °F 93% 29.30 in 10.0 mi SSW 6.9 mph - N/A   Mostly Cloudy
10:55 PM 35.6 °F 30.7 °F 33.8 °F 93% 29.30 in 5.0 mi SSW 5.8 mph - N/A Rain Light Rain
11:15 PM 35.6 °F 31.7 °F 33.8 °F 93% 29.30 in 5.0 mi South 4.6 mph - N/A   Light Drizzle
11:35 PM 33.8 °F 28.6 °F 33.8 °F 100% 29.30 in 4.0 mi South 5.8 mph - N/A Rain Light Rain
11:55 PM 33.8 °F 27.0 °F 33.8 °F 100% 29.29 in 5.0 mi South 8.1 mph - N/A Rain Light Rain